When you browse on this site, cookies collect data to enhance your experience and personalize the content and advertising you see.
Visit our Privacy Policy to learn more. By continuing to use the site, you agree to this use of cookies and data.
  • In Österreich
  • Länderverzeichnis
  • Für 7 Tage
  • Wassertemperatur
  • Satellitenkarten
  • Wetterkarte
  • News
  • Widgets
  • user-avatar
    Anmelden

    Stündliche Wetter Sakkhar

    Heute, 11 Dezember, Dienstag

    Zeit Temperatur Niederschläge Wind Luftdruck Luftfeuchtigkeit
    00:00 +20°C° 0 mm 4 m/S 755 mmHg 35%
    01:00 +19°C° 0 mm 5 m/S 755 mmHg 36%
    02:00 +19°C° 0 mm 5 m/S 755 mmHg 37%
    03:00 +19°C° 0 mm 5 m/S 755 mmHg 39%
    04:00 +17°C° 0 mm 6 m/S 755 mmHg 41%
    05:00 +17°C° 0 mm 5 m/S 755 mmHg 43%
    06:00 +17°C° 0 mm 5 m/S 755 mmHg 45%
    07:00 +17°C° 0 mm 5 m/S 756 mmHg 46%
    08:00 +16°C° 0 mm 5 m/S 757 mmHg 47%
    09:00 +19°C° 0 mm 5 m/S 757 mmHg 42%
    10:00 +21°C° 0 mm 5 m/S 757 mmHg 37%
    11:00 +23°C° 0 mm 5 m/S 757 mmHg 32%
    12:00 +25°C° 0 mm 5 m/S 756 mmHg 30%
    13:00 +26°C° 0 mm 4 m/S 756 mmHg 28%
    14:00 +27°C° 0 mm 4 m/S 755 mmHg 26%
    15:00 +27°C° 0 mm 3 m/S 755 mmHg 27%
    16:00 +26°C° 0 mm 3 m/S 755 mmHg 27%
    17:00 +26°C° 0 mm 2 m/S 755 mmHg 28%
    18:00 +25°C° 0 mm 3 m/S 755 mmHg 30%
    19:00 +22°C° 0 mm 3 m/S 756 mmHg 32%
    20:00 +21°C° 0 mm 3 m/S 756 mmHg 34%
    21:00 +20°C° 0 mm 3 m/S 756 mmHg 35%
    22:00 +20°C° 0 mm 4 m/S 756 mmHg 37%
    23:00 +19°C° 0 mm 4 m/S 757 mmHg 38%

    Morgen, 12 Dezember, Mittwoch

    Zeit Temperatur Niederschläge Wind Luftdruck Luftfeuchtigkeit
    00:00 +19°C° 0 mm 4 m/S 757 mmHg 40%
    01:00 +18°C° 0 mm 4 m/S 757 mmHg 43%
    02:00 +18°C° 0 mm 4 m/S 756 mmHg 45%
    03:00 +17°C° 0 mm 4 m/S 757 mmHg 47%
    04:00 +17°C° 0 mm 4 m/S 757 mmHg 49%
    05:00 +16°C° 0 mm 3 m/S 757 mmHg 51%
    06:00 +16°C° 0 mm 3 m/S 757 mmHg 50%
    07:00 +16°C° 0 mm 3 m/S 758 mmHg 50%
    08:00 +16°C° 0 mm 3 m/S 759 mmHg 50%
    09:00 +18°C° 0 mm 3 m/S 759 mmHg 44%
    10:00 +21°C° 0 mm 4 m/S 759 mmHg 38%
    11:00 +23°C° 0 mm 4 m/S 760 mmHg 32%
    12:00 +23°C° 0 mm 4 m/S 759 mmHg 30%
    13:00 +25°C° 0 mm 3 m/S 759 mmHg 28%
    14:00 +26°C° 0 mm 3 m/S 758 mmHg 26%
    15:00 +26°C° 0 mm 3 m/S 758 mmHg 26%
    16:00 +25°C° 0 mm 3 m/S 758 mmHg 27%
    17:00 +25°C° 0 mm 2 m/S 757 mmHg 27%
    18:00 +24°C° 0 mm 2 m/S 758 mmHg 29%
    19:00 +21°C° 0 mm 3 m/S 759 mmHg 31%
    20:00 +20°C° 0 mm 3 m/S 759 mmHg 33%
    21:00 +20°C° 0 mm 3 m/S 759 mmHg 34%
    22:00 +19°C° 0 mm 3 m/S 759 mmHg 34%
    23:00 +18°C° 0 mm 2 m/S 760 mmHg 35%

    übermorgen, 13 Dezember, Donnerstag

    Zeit Temperatur Niederschläge Wind Luftdruck Luftfeuchtigkeit
    00:00 +18°C° 0 mm 3 m/S 760 mmHg 36%
    01:00 +17°C° 0 mm 3 m/S 760 mmHg 37%
    02:00 +17°C° 0 mm 3 m/S 760 mmHg 37%
    03:00 +16°C° 0 mm 3 m/S 760 mmHg 38%
    04:00 +16°C° 0 mm 3 m/S 760 mmHg 38%
    05:00 +16°C° 0 mm 3 m/S 760 mmHg 38%
    06:00 +16°C° 0 mm 2 m/S 760 mmHg 37%
    07:00 +16°C° 0 mm 2 m/S 761 mmHg 36%
    08:00 +16°C° 0 mm 2 m/S 762 mmHg 35%
    09:00 +18°C° 0 mm 2 m/S 762 mmHg 31%
    10:00 +20°C° 0 mm 3 m/S 762 mmHg 27%
    11:00 +24°C° 0 mm 3 m/S 763 mmHg 22%
    12:00 +24°C° 0 mm 3 m/S 762 mmHg 22%
    13:00 +25°C° 0 mm 2 m/S 761 mmHg 21%
    14:00 +26°C° 0 mm 2 m/S 760 mmHg 20%
    15:00 +25°C° 0 mm 2 m/S 760 mmHg 20%
    16:00 +25°C° 0 mm 2 m/S 760 mmHg 21%
    17:00 +24°C° 0 mm 2 m/S 759 mmHg 21%
    18:00 +23°C° 0 mm 2 m/S 760 mmHg 23%
    19:00 +21°C° 0 mm 2 m/S 760 mmHg 25%
    20:00 +19°C° 0 mm 2 m/S 761 mmHg 27%
    21:00 +19°C° 0 mm 2 m/S 761 mmHg 28%
    22:00 +18°C° 0 mm 2 m/S 761 mmHg 29%
    23:00 +18°C° 0 mm 2 m/S 761 mmHg 30%

    14 Dezember, Freitag

    Zeit Temperatur Niederschläge Wind Luftdruck Luftfeuchtigkeit
    00:00 +17°C° 0 mm 2 m/S 761 mmHg 31%
    01:00 +17°C° 0 mm 2 m/S 761 mmHg 31%
    02:00 +16°C° 0 mm 2 m/S 761 mmHg 31%
    03:00 +16°C° 0 mm 2 m/S 761 mmHg 31%
    04:00 +15°C° 0 mm 2 m/S 761 mmHg 31%
    05:00 +15°C° 0 mm 2 m/S 760 mmHg 31%
    06:00 +15°C° 0 mm 2 m/S 761 mmHg 30%
    07:00 +15°C° 0 mm 2 m/S 762 mmHg 29%
    08:00 +16°C° 0 mm 2 m/S 762 mmHg 28%
    09:00 +18°C° 0 mm 2 m/S 762 mmHg 25%
    10:00 +20°C° 0 mm 2 m/S 763 mmHg 21%
    11:00 +23°C° 0 mm 2 m/S 763 mmHg 17%
    12:00 +24°C° 0 mm 2 m/S 762 mmHg 17%
    13:00 +25°C° 0 mm 2 m/S 761 mmHg 16%
    14:00 +26°C° 0 mm 2 m/S 761 mmHg 15%
    15:00 +25°C° 0 mm 2 m/S 760 mmHg 16%
    16:00 +25°C° 0 mm 2 m/S 760 mmHg 16%
    17:00 +24°C° 0 mm 1 m/S 760 mmHg 17%
    18:00 +23°C° 0 mm 2 m/S 761 mmHg 18%
    19:00 +21°C° 0 mm 2 m/S 761 mmHg 19%
    20:00 +19°C° 0 mm 2 m/S 762 mmHg 21%
    21:00 +19°C° 0 mm 2 m/S 762 mmHg 22%
    22:00 +18°C° 0 mm 2 m/S 762 mmHg 22%
    23:00 +17°C° 0 mm 2 m/S 762 mmHg 23%

    15 Dezember, Samstag

    Zeit Temperatur Niederschläge Wind Luftdruck Luftfeuchtigkeit
    00:00 +17°C° 0 mm 2 m/S 762 mmHg 24%
    01:00 +16°C° 0 mm 2 m/S 762 mmHg 24%
    02:00 +16°C° 0 mm 2 m/S 761 mmHg 25%
    03:00 +15°C° 0 mm 2 m/S 761 mmHg 25%
    04:00 +15°C° 0 mm 2 m/S 761 mmHg 26%
    05:00 +15°C° 0 mm 2 m/S 761 mmHg 27%
    06:00 +15°C° 0 mm 2 m/S 762 mmHg 26%
    07:00 +15°C° 0 mm 2 m/S 762 mmHg 26%
    08:00 +15°C° 0 mm 2 m/S 763 mmHg 25%
    09:00 +17°C° 0 mm 2 m/S 763 mmHg 22%
    10:00 +20°C° 0 mm 2 m/S 763 mmHg 18%
    11:00 +23°C° 0 mm 2 m/S 763 mmHg 15%
    12:00 +24°C° 0 mm 2 m/S 762 mmHg 14%
    13:00 +25°C° 0 mm 2 m/S 762 mmHg 13%
    14:00 +26°C° 0 mm 2 m/S 761 mmHg 12%
    15:00 +25°C° 0 mm 2 m/S 761 mmHg 12%
    16:00 +24°C° 0 mm 2 m/S 761 mmHg 13%
    17:00 +24°C° 0 mm 2 m/S 760 mmHg 13%
    18:00 +21°C° 0 mm 2 m/S 761 mmHg 14%
    19:00 +20°C° 0 mm 2 m/S 761 mmHg 16%
    20:00 +19°C° 0 mm 2 m/S 762 mmHg 17%
    21:00 +18°C° 0 mm 2 m/S 762 mmHg 18%
    22:00 +18°C° 0 mm 2 m/S 762 mmHg 19%
    23:00 +17°C° 0 mm 2 m/S 762 mmHg 20%

    16 Dezember, Sonntag

    Zeit Temperatur Niederschläge Wind Luftdruck Luftfeuchtigkeit
    00:00 +16°C° 0 mm 2 m/S 762 mmHg 21%
    01:00 +16°C° 0 mm 2 m/S 762 mmHg 22%
    02:00 +15°C° 0 mm 2 m/S 762 mmHg 23%
    03:00 +15°C° 0 mm 2 m/S 762 mmHg 24%
    04:00 +14°C° 0 mm 2 m/S 761 mmHg 25%
    05:00 +14°C° 0 mm 1 m/S 761 mmHg 26%
    06:00 +14°C° 0 mm 1 m/S 762 mmHg 26%
    07:00 +15°C° 0 mm 1 m/S 762 mmHg 25%
    08:00 +15°C° 0 mm 1 m/S 763 mmHg 25%
    09:00 +17°C° 0 mm 2 m/S 763 mmHg 22%
    10:00 +20°C° 0 mm 2 m/S 763 mmHg 18%
    11:00 +23°C° 0 mm 2 m/S 763 mmHg 15%
    12:00 +24°C° 0 mm 2 m/S 762 mmHg 13%
    13:00 +25°C° 0 mm 3 m/S 761 mmHg 12%
    14:00 +26°C° 0 mm 3 m/S 760 mmHg 11%
    15:00 +25°C° 0 mm 3 m/S 760 mmHg 11%
    16:00 +25°C° 0 mm 3 m/S 760 mmHg 12%
    17:00 +24°C° 0 mm 2 m/S 760 mmHg 12%
    18:00 +23°C° 0 mm 2 m/S 760 mmHg 14%
    19:00 +20°C° 0 mm 2 m/S 760 mmHg 15%
    20:00 +18°C° 0 mm 2 m/S 761 mmHg 17%
    21:00 +18°C° 0 mm 2 m/S 761 mmHg 18%
    22:00 +17°C° 0 mm 2 m/S 761 mmHg 19%
    23:00 +16°C° 0 mm 2 m/S 761 mmHg 20%
    Mehr zeigen